TimeGMT,TemperatureF,Dew PointF,Humidity,Sea Level PressureIn,VisibilityMPH,Wind Direction,Wind SpeedMPH,Gust SpeedMPH,PrecipitationIn,Events,Conditions,WindDirDegrees,DateUTC
12:50 AM,44.6,35.6,71,29.71,6.2,NW,20.7,33.4,N/A,Rain,Light Rain,320,2012-12-07 00:50:00
1:50 AM,44.6,35.6,71,29.71,6.2,NNW,16.1,29.9,N/A,,Scattered Clouds,330,2012-12-07 01:50:00
2:50 AM,45,36,63,29.73,9,NW,19.6,,,,Mostly Cloudy,310,2012-12-07 02:50:00
2:50 AM,44.6,37.4,76,29.71,6.2,NW,19.6,32.2,N/A,,Scattered Clouds,310,2012-12-07 02:50:00
3:50 AM,46.4,37.4,71,29.71,6.2,NW,20.7,38.0,N/A,,Scattered Clouds,310,2012-12-07 03:50:00
4:50 AM,44.6,41.0,87,29.68,6.2,NW,27.6,48.3,N/A,Rain,Light Rain Showers,310,2012-12-07 04:50:00
5:50 AM,42,39,83,29.74,11,NNW,18.4,,,Rain,Light Rain Showers,330,2012-12-07 05:50:00
5:50 AM,42.8,39.2,87,29.71,6.2,NNW,18.4,32.2,N/A,,Scattered Clouds,330,2012-12-07 05:50:00
6:50 AM,44.6,35.6,71,29.74,6.2,NNW,26.5,-,N/A,,Scattered Clouds,340,2012-12-07 06:50:00
7:50 AM,44.6,35.6,71,29.77,6.2,NNW,25.3,44.9,N/A,,Haze,340,2012-12-07 07:50:00
8:50 AM,45,37,64,29.83,6,NNW,24.2,,,,Haze,340,2012-12-07 08:50:00
8:50 AM,44.6,37.4,76,29.80,6.2,NNW,24.2,41.4,N/A,,Haze,340,2012-12-07 08:50:00
9:50 AM,46.4,37.4,71,29.83,6.2,NNW,25.3,44.9,N/A,,Mostly Cloudy,340,2012-12-07 09:50:00
10:50 AM,46.4,39.2,76,29.86,6.2,North,20.7,35.7,N/A,Rain,Light Rain Showers,350,2012-12-07 10:50:00
11:50 AM,47,38,62,29.88,9,NNW,24.2,,,Rain,Light Rain Showers,340,2012-12-07 11:50:00
11:50 AM,46.4,37.4,71,29.86,6.2,NNW,24.2,42.6,N/A,,Mostly Cloudy,340,2012-12-07 11:50:00
12:50 PM,48.2,37.4,66,29.89,6.2,North,21.9,36.8,N/A,,Haze,350,2012-12-07 12:50:00
1:50 PM,46.4,37.4,71,29.89,6.2,NNW,23.0,38.0,N/A,,Partly Cloudy,340,2012-12-07 13:50:00
2:50 PM,47,38,60,29.93,6,NNW,20.7,,,,Haze,340,2012-12-07 14:50:00
2:50 PM,46.4,37.4,71,29.92,6.2,NNW,20.7,39.1,N/A,,Partly Cloudy,340,2012-12-07 14:50:00
3:50 PM,46.4,39.2,76,29.92,6.2,NNW,23.0,40.3,N/A,,Mostly Cloudy,340,2012-12-07 15:50:00
4:50 PM,46.4,39.2,76,29.95,6.2,North,24.2,40.3,N/A,,Mostly Cloudy,350,2012-12-07 16:50:00
5:50 PM,47,40,69,30.01,11,North,19.6,,,,Overcast,350,2012-12-07 17:50:00
5:50 PM,46.4,39.2,76,30.01,6.2,North,19.6,38.0,N/A,,Overcast,350,2012-12-07 17:50:00
6:50 PM,48.2,39.2,71,30.04,6.2,North,18.4,35.7,N/A,,Overcast,350,2012-12-07 18:50:00
7:50 PM,46.4,37.4,71,30.06,6.2,North,16.1,29.9,N/A,,Overcast,350,2012-12-07 19:50:00
8:50 PM,46,38,63,30.09,11,North,16.1,,,,Mostly Cloudy,350,2012-12-07 20:50:00
8:50 PM,46.4,37.4,71,30.06,6.2,North,16.1,-,N/A,,Mostly Cloudy,350,2012-12-07 20:50:00
9:50 PM,46.4,39.2,76,30.09,6.2,North,16.1,32.2,N/A,,Mostly Cloudy,10,2012-12-07 21:50:00
10:50 PM,46.4,39.2,76,30.12,6.2,North,15.0,-,N/A,,Mostly Cloudy,360,2012-12-07 22:50:00
11:50 PM,46,39,67,30.17,11,North,13.8,,,,Mostly Cloudy,0,2012-12-07 23:50:00
11:50 PM,46.4,39.2,76,30.15,6.2,North,13.8,-,N/A,,Mostly Cloudy,360,2012-12-07 23:50:00